| time (UTC) | temp F | wind direction | speed MPH | gust MPH | rain 1hr in | rain 24hr in | rain mn in | humidity % | barometer mb |
| 20260503171552 | 68 | 32 | 3.0 | 9.0 | 0.00 | 0.00 | 0.00 | 69 | 1011.5 |
| 20260503120114 | 52 | 0 | 0.0 | 0.0 | 0.00 | 0.00 | 0.00 | 94 | 1011.6 |
| 20260503081554 | 53 | 0 | 0.0 | 0.0 | 0.00 | 0.00 | 0.00 | 92 | 1012.3 |
| 20260503071551 | 55 | 0 | 0.0 | 0.0 | 0.00 | 0.00 | 0.00 | 88 | 1012.6 |
| 20260503054549 | 58 | 0 | 0.0 | 0.0 | 0.00 | 0.00 | 0.00 | 83 | 1012.7 |
| 20260503053049 | 59 | 0 | 0.0 | 0.0 | 0.00 | 0.00 | 0.00 | 85 | 1012.5 |
| 20260503051549 | 60 | 0 | 0.0 | 0.0 | 0.00 | 0.00 | 0.00 | 83 | 1012.6 |
| 20260503050055 | 59 | 0 | 0.0 | 0.0 | 0.00 | 0.00 | 0.00 | 84 | 1012.4 |
| 20260503044604 | 60 | 0 | 0.0 | 0.0 | 0.00 | 0.00 | 0.00 | 82 | 1012.6 |
| 20260503043056 | 61 | 0 | 0.0 | 2.0 | 0.00 | 0.00 | 0.00 | 81 | 1012.4 |
| 20260503041610 | 61 | 0 | 0.0 | 0.0 | 0.00 | 0.00 | 0.00 | 79 | 1012.3 |
| 20260503040053 | 62 | 0 | 0.0 | 0.0 | 0.00 | 0.00 | 0.00 | 77 | 1012.2 |
| 20260503034554 | 63 | 0 | 1.0 | 4.0 | 0.00 | 0.00 | 0.00 | 76 | 1011.9 |
| 20260503033106 | 62 | 337 | 1.0 | 4.0 | 0.00 | 0.00 | 0.00 | 77 | 1011.6 |
| 20260503031554 | 63 | 9 | 1.0 | 2.0 | 0.00 | 0.00 | 0.00 | 75 | 1011.6 |
| 20260503030105 | 63 | 0 | 0.0 | 2.0 | 0.00 | 0.00 | 0.00 | 75 | 1011.7 |
| 20260503024559 | 64 | 36 | 2.0 | 4.0 | 0.00 | 0.00 | 0.00 | 73 | 1011.6 |
| 20260503023055 | 64 | 327 | 2.0 | 3.0 | 0.00 | 0.00 | 0.00 | 72 | 1011.4 |
| 20260503021552 | 64 | 293 | 2.0 | 4.0 | 0.00 | 0.00 | 0.00 | 72 | 1011.7 |
| 20260503020056 | 64 | 249 | 1.0 | 7.0 | 0.00 | 0.00 | 0.00 | 71 | 1012.1 |
| 20260503014555 | 65 | 168 | 0.0 | 10.0 | 0.00 | 0.00 | 0.00 | 70 | 1012.4 |
| 20260503013049 | 65 | 142 | 7.0 | 11.0 | 0.00 | 0.00 | 0.00 | 69 | 1013.0 |
| 20260503011603 | 67 | 140 | 2.0 | 4.0 | 0.00 | 0.00 | 0.00 | 65 | 1012.3 |
| 20260503010052 | 67 | 0 | 1.0 | 3.0 | 0.00 | 0.00 | 0.00 | 64 | 1012.2 |
| 20260503004551 | 67 | 0 | 2.0 | 5.0 | 0.00 | 0.00 | 0.00 | 64 | 1012.0 |
| 20260503003102 | 67 | 12 | 0.0 | 2.0 | 0.00 | 0.00 | 0.00 | 63 | 1012.1 |
| 20260503001600 | 67 | 296 | 0.0 | 4.0 | 0.00 | 0.00 | 0.00 | 64 | 1011.9 |
| 20260503000053 | 66 | 241 | 0.0 | 5.0 | 0.00 | 0.00 | 0.00 | 65 | 1011.9 |
| 20260502234556 | 66 | 352 | 3.0 | 5.0 | 0.00 | 0.00 | 0.00 | 66 | 1011.8 |
| 20260502233053 | 65 | 59 | 1.0 | 5.0 | 0.00 | 0.00 | 0.00 | 66 | 1012.2 |
| 20260502231558 | 65 | 45 | 2.0 | 5.0 | 0.00 | 0.00 | 0.00 | 66 | 1012.4 |
| 20260502230055 | 64 | 34 | 2.0 | 4.0 | 0.00 | 0.00 | 0.00 | 68 | 1012.7 |
| 20260502224551 | 64 | 9 | 3.0 | 5.0 | 0.00 | 0.00 | 0.00 | 68 | 1013.0 |
| 20260502223054 | 63 | 41 | 1.0 | 6.0 | 0.00 | 0.00 | 0.00 | 71 | 1013.1 |
| 20260502221555 | 63 | 52 | 4.0 | 8.0 | 0.00 | 0.00 | 0.00 | 70 | 1013.4 |
| 20260502220141 | 62 | 131 | 4.0 | 7.0 | 0.00 | 0.00 | 0.00 | 69 | 1013.5 |
| 20260502214555 | 62 | 58 | 4.0 | 5.0 | 0.00 | 0.00 | 0.00 | 70 | 1013.8 |
| 20260502213102 | 63 | 44 | 3.0 | 5.0 | 0.00 | 0.00 | 0.00 | 69 | 1013.7 |
| 20260502211557 | 62 | 21 | 3.0 | 8.0 | 0.00 | 0.00 | 0.00 | 69 | 1013.9 |
| 20260502210104 | 62 | 55 | 4.0 | 9.0 | 0.00 | 0.00 | 0.00 | 70 | 1014.2 |
| 20260502203121 | 61 | 360 | 5.0 | 10.0 | 0.00 | 0.00 | 0.00 | 70 | 1014.5 |
| 20260502201553 | 59 | 14 | 3.0 | 8.0 | 0.00 | 0.00 | 0.00 | 72 | 1014.5 |
| 20260502200055 | 59 | 89 | 1.0 | 7.0 | 0.00 | 0.00 | 0.00 | 72 | 1014.9 |
| 20260502194555 | 59 | 10 | 3.0 | 8.0 | 0.00 | 0.00 | 0.00 | 72 | 1015.1 |
| 20260502193053 | 59 | 340 | 6.0 | 10.0 | 0.00 | 0.00 | 0.00 | 71 | 1015.2 |
| 20260502191611 | 59 | 33 | 1.0 | 8.0 | 0.00 | 0.00 | 0.00 | 72 | 1015.4 |
| 20260502190103 | 58 | 360 | 4.0 | 7.0 | 0.00 | 0.00 | 0.00 | 73 | 1015.5 |
| 20260502184553 | 57 | 30 | 3.0 | 8.0 | 0.00 | 0.00 | 0.00 | 74 | 1015.9 |
| 20260502183102 | 56 | 113 | 2.0 | 7.0 | 0.00 | 0.00 | 0.00 | 75 | 1016.0 |
| 20260502181600 | 55 | 46 | 4.0 | 10.0 | 0.00 | 0.00 | 0.00 | 79 | 1015.8 |
| 20260502180108 | 54 | 41 | 7.0 | 9.0 | 0.00 | 0.00 | 0.00 | 81 | 1015.6 |